Погода в Гранфонтэне

Швейцария     47°23′25″N   6°56′16″E
темп.,
°C
ветер,
м/с
пор.,
м/с
влажн.,
%
обл.,
%
осадки,
мм/ч
давл.,
гПа
погр.,
м
8 мая, сб
сб823:00+5ю116699 0.0 102111
02:00+3вюв11766 0.0 102110
05:00+3юв1184100 0.0 102010
08:00+6всв117964 0.0 102097
11:00+13ссз136316 0.0 1018689
14:00+17ссз245998 0.0 1015974
17:00+19зсз4763100 0.0 10131074
20:00+15всв0080100 0.0 101311
9 мая, вс
вс923:00+10юв228567 0.0 101312
02:00+10юв2174100 0.0 101212
05:00+9вюв1177100 0.0 101111
08:00+12в117858 0.0 101153
11:00+18всв226599 0.0 1009358
14:00+22св225853 0.0 1008683
17:00+22ссв3266100 0.0 1006465
20:00+18с12818 0.1 100615
10 мая, пн
пн1023:00+15ююв2281100 0.1 100514
02:00+11ю1177100 0.1 100513
05:00+11зюз51089100 0.2 1007256
08:00+13юз479393 0.6 1009312
11:00+10з4998100 2.1 1011440
14:00+11зюз2391100 8.0 1012433
17:00+11з1194100 1.2 1010220
20:00+10з4698100 3.5 1010317
11 мая, вт
вт1123:00+9зюз2599100 5.8 1012244
02:00+9юв1196100 12.4 101120
05:00+9в1197100 3.1 101027
08:00+9всв3597100 3.6 1009209
11:00+9ссз1198100 1.9 1009142
14:00+9всв2398100 11.7 1009147
17:00+10в2394100 2.4 1009278
20:00+8зюз41097100 9.8 1012459
12 мая, ср
ср1223:00+9з61197100 1.3 1014646
02:00+8зюз51194100 2.5 1015571
05:00+7зюз4998100 0.1 1016566
08:00+7з4897100 0.3 1016547
11:00+9з458796 0.1 1016726
14:00+13зсз4465100 0.3 10131495
17:00+13з446324 0.1 10131296
20:00+10з248193 0.1 101378